User: anonymous
Location: Fort Hays State University
(38.8712°N, 99.3432°W)
Time: 08:26:38
(UTC-05:00)
Language:

ALOS - Orbit

View from above orbital plane
View from above orbital plane
View from above satellite
View from above satellite

Ground track
Ground track

The orbit data is extracted from the following two-line orbital elements,

1 28931U 06002A   14258.16061980  .00000922  00000-0  19580-3 0   420
2 28931 097.9744 313.0480 0000936 155.3106 282.4647 14.61284204460468
Epoch (UTC): 15 September 2014 03:51:17
Eccentricity: 0.0000936
inclination: 97.9744°
perigee height: 688 km
apogee height: 689 km
right ascension of ascending node: 313.0480°
argument of perigee: 155.3106°
revolutions per day: 14.61284204
mean anomaly at epoch: 282.4647°
orbit number at epoch: 46046

The dashed part of the orbit path shows where the satellite is in the earth's shadow,  

DLR